Location: Ostrava
(49.8330°N, 18.2830°E)
Time: 13:06:28
(UTC+02:00)

Cosmos 1400 Rocket - Visible Passes

Search period start: 30 July 2016 00:00
Search period end: 09 August 2016 00:00
Orbit: 525 x 570 km, 81.2° (Epoch: 29 July)

Date Brightness Start Highest point End Pass type
(mag) Time Alt. Az. Time Alt. Az. Time Alt. Az.
30 Jul 3.9 00:02:33 28° WSW 00:04:09 41° WNW 00:08:07 10° N visible
30 Jul 4.3 22:21:40 20° ESE 22:22:47 22° E 22:26:02 10° NE visible
30 Jul 4.0 23:57:19 25° WSW 23:59:05 38° WNW 00:03:00 10° N visible
31 Jul 4.2 22:16:24 21° ESE 22:17:40 24° E 22:21:02 10° NE visible
31 Jul 4.2 23:52:03 22° WSW 23:54:02 35° WNW 23:57:53 10° N visible
01 Aug 4.1 22:11:06 21° ESE 22:12:33 26° E 22:16:02 10° NE visible
01 Aug 4.3 23:46:46 20° WSW 23:48:59 33° WNW 23:52:47 10° N visible
02 Aug 4.0 22:05:47 21° SE 22:07:27 28° E 22:11:02 10° NNE visible
02 Aug 4.5 23:41:26 17° WSW 23:43:55 31° WNW 23:47:40 10° N visible
03 Aug 3.8 22:00:26 21° SE 22:02:21 30° E 22:06:01 10° NNE visible
03 Aug 4.6 23:36:05 15° WSW 23:38:52 29° WNW 23:42:32 10° N visible
04 Aug 3.7 21:55:03 19° SE 21:57:16 32° E 22:01:00 10° NNE visible
04 Aug 4.8 23:30:42 12° WSW 23:33:49 27° WNW 23:37:24 10° N visible
05 Aug 3.6 21:49:37 18° SSE 21:52:09 35° E 21:55:58 10° NNE visible
05 Aug 4.9 23:25:19 10° SW 23:28:46 25° WNW 23:32:16 10° N visible
06 Aug 3.5 21:44:08 16° SSE 21:47:04 38° E 21:50:56 10° NNE visible
06 Aug 5.1 23:20:21 10° WSW 23:23:44 24° WNW 23:27:07 10° NNW visible
07 Aug 3.4 21:38:35 13° SSE 21:41:58 41° E 21:45:53 10° NNE visible
07 Aug 5.2 23:15:25 10° WSW 23:18:41 22° WNW 23:21:58 10° NNW visible
08 Aug 3.3 21:32:57 10° SSE 21:36:52 44° E 21:40:51 10° NNE visible
08 Aug 5.3 23:10:29 10° WSW 23:13:38 21° WNW 23:16:48 10° NNW visible
